Location: Carabito
(9.8355°N, 67.9249°W)
Time: 11:07:43
(UTC+00:00)

CENTAUR R/B - Pass Details

Date: 23 May 2024
Orbit: 667 x 1517 km, 63.4° (Epoch: 25 June)

Event Time Altitude Azimuth Distance (km) Brightness Sun altitude
Exits shadow 09:20:24 12° 215° (SW) 1,973 3.6 -12.1°
Maximum altitude 09:24:42 63° 295° (WNW) 808 1.9 -11.1°
Drops below altitude 10° 09:30:00 10° 16° (NNE) 2,394 5.1 -9.9°
Sets 09:32:41 0° 19° (NNE) 3,444 6.1 -9.3°
